Volver al catálogo

INTELSAT 33E DEB

ActivoGEO
NORAD 64403·DEBRIS· XX

Lanzado Aug 24, 2016 desde Guiana Space Centre

Loading…

TLE

ActualizadoSource: Space-Track

Época: Sep 13, 2026, 22:16 UTC

1 64403U 16053AH  26256.92827776 -.00000357  00000-0  00000-0 0  9997
2 64403   1.6312  67.2161 0055582 351.3178   9.3984  1.00725920  6856

Sigue INTELSAT 33E DEB en tiempo real con AllMySat

Download on the App Store